Torna al catalogo

STARLINK-35304

AttivoComunicazioniVLEO
NORAD 66249·PAYLOAD·🇺🇸 United States

Lanciato Oct 29, 2025 da Cape Canaveral Space Force Station

Loading…

Prossimi Passaggi (prossime 24 ore)

TLE

AggiornatoSource: CelesTrak SupGP

Epoca: Sep 14, 2026, 15:45 UTC

1 66249C 25245R   26257.65673611 -.00106150  00000+0 -34131-2 0  2577
2 66249  53.1563 125.1412 0001262  98.0795 224.0064 15.31757948    16

Traccia STARLINK-35304 in tempo reale con AllMySat

Download on the App Store